AAY1570 KPGD-KATW

Flight info

Callsign AAY1570
Flight time 2h 46m
Altitude 38000
Route ROGAN LAL BRUTS Q118 KAILL IIU J89 BAE CORIR
Aircraft A320/M-SDFGHIRWYZ/SB1

Departure

Time 2026-04-25 14:49
Airport Punta Gorda Airport (KPGD)

Arrival

Time 2026-04-25 17:36
Airport Appleton International Airport (KATW)
Time Latitude Longitude Altitude Speed Heading
2026-04-25 14:24 26.91717 -81.99770 30 ft 0 kts 238°
2026-04-25 14:40 26.91731 -81.99741 28 ft 4 kts 252°
2026-04-25 14:40 26.91736 -81.99721 28 ft 4 kts 265°
2026-04-25 14:40 26.91733 -81.99692 28 ft 4 kts 298°
2026-04-25 14:40 26.91723 -81.99678 28 ft 1 kts 329°
2026-04-25 14:43 26.91724 -81.99678 28 ft 1 kts 329°
2026-04-25 14:43 26.91772 -81.99710 27 ft 11 kts 329°
2026-04-25 14:43 26.91839 -81.99756 26 ft 11 kts 329°
2026-04-25 14:44 26.91896 -81.99793 29 ft 9 kts 329°
2026-04-25 14:44 26.91964 -81.99838 27 ft 15 kts 329°
2026-04-25 14:44 26.92049 -81.99896 27 ft 13 kts 329°
2026-04-25 14:44 26.92125 -81.99947 27 ft 12 kts 330°
2026-04-25 14:45 26.92191 -81.99989 28 ft 9 kts 329°
2026-04-25 14:45 26.92239 -82.00021 30 ft 7 kts 329°
2026-04-25 14:45 26.92274 -82.00040 30 ft 5 kts 347°
2026-04-25 14:45 26.92303 -82.00023 30 ft 6 kts 50°
2026-04-25 14:46 26.92313 -82.00007 30 ft 0 kts 57°
2026-04-25 14:48 26.92328 -81.99981 30 ft 10 kts 57°
2026-04-25 14:48 26.92346 -81.99912 30 ft 9 kts 107°
2026-04-25 14:49 26.92245 -81.99834 27 ft 44 kts 149°
2026-04-25 14:49 26.91754 -81.99511 30 ft 115 kts 149°
2026-04-25 14:49 26.90922 -81.98959 194 ft 149 kts 149°
2026-04-25 14:49 26.90061 -81.98373 949 ft 143 kts 148°
2026-04-25 14:50 26.89334 -81.97632 1624 ft 144 kts 118°
2026-04-25 14:50 26.89168 -81.96476 2046 ft 166 kts 78°
2026-04-25 14:50 26.89865 -81.95384 2385 ft 191 kts 31°
2026-04-25 14:50 26.91224 -81.94904 2683 ft 220 kts 11°
2026-04-25 14:51 26.92827 -81.94647 3056 ft 246 kts
2026-04-25 14:51 26.94606 -81.94406 3610 ft 267 kts
2026-04-25 14:51 26.96467 -81.94140 4505 ft 271 kts
2026-04-25 14:51 26.98349 -81.93856 5427 ft 275 kts
2026-04-25 14:52 27.00252 -81.93555 6361 ft 277 kts
2026-04-25 14:52 27.02173 -81.93238 7277 ft 281 kts
2026-04-25 14:52 27.04114 -81.92910 8136 ft 284 kts
2026-04-25 14:52 27.05413 -81.92689 8685 ft 287 kts
2026-04-25 14:53 27.08075 -81.92228 9760 ft 292 kts
2026-04-25 14:53 27.10104 -81.91873 10394 ft 304 kts
2026-04-25 14:53 27.12277 -81.91497 10687 ft 326 kts
2026-04-25 14:53 27.14562 -81.91102 11257 ft 337 kts
2026-04-25 14:54 27.16895 -81.90700 12018 ft 341 kts
2026-04-25 14:54 27.19251 -81.90293 12798 ft 344 kts
2026-04-25 14:54 27.21626 -81.89883 13592 ft 347 kts
2026-04-25 14:54 27.24025 -81.89493 14305 ft 350 kts
2026-04-25 14:55 27.26458 -81.89510 14997 ft 350 kts 351°
2026-04-25 14:55 27.28878 -81.89903 15689 ft 353 kts 349°
2026-04-25 14:55 27.31314 -81.90309 16375 ft 356 kts 349°
2026-04-25 14:55 27.33774 -81.90716 16999 ft 359 kts 349°
2026-04-25 14:56 27.36262 -81.91125 17623 ft 363 kts 349°
2026-04-25 14:56 27.38775 -81.91535 18245 ft 366 kts 349°
2026-04-25 14:56 27.41306 -81.91947 18859 ft 369 kts 349°
2026-04-25 14:56 27.43860 -81.92365 19459 ft 373 kts 349°
2026-04-25 14:57 27.46442 -81.92787 20043 ft 376 kts 349°
2026-04-25 14:57 27.49043 -81.93214 20628 ft 379 kts 349°
2026-04-25 14:57 27.51666 -81.93643 21184 ft 383 kts 349°
2026-04-25 14:57 27.54314 -81.94077 21737 ft 386 kts 349°
2026-04-25 14:58 27.56979 -81.94512 22271 ft 389 kts 349°
2026-04-25 14:58 27.59667 -81.94952 22794 ft 392 kts 349°
2026-04-25 14:58 27.62341 -81.95393 23299 ft 395 kts 348°
2026-04-25 14:58 27.65068 -81.95847 23783 ft 398 kts 348°
2026-04-25 14:59 27.67813 -81.96303 24262 ft 400 kts 348°
2026-04-25 14:59 27.70574 -81.96759 24718 ft 403 kts 348°
2026-04-25 14:59 27.73358 -81.97219 25155 ft 406 kts 349°
2026-04-25 14:59 27.76158 -81.97682 25584 ft 408 kts 349°
2026-04-25 15:00 27.78977 -81.98146 26014 ft 410 kts 349°
2026-04-25 15:00 27.81804 -81.98611 26415 ft 412 kts 349°
2026-04-25 15:00 27.84647 -81.99077 26796 ft 414 kts 349°
2026-04-25 15:00 27.87507 -81.99546 27172 ft 416 kts 349°
2026-04-25 15:01 27.90378 -82.00022 27550 ft 419 kts 349°
2026-04-25 15:01 27.93268 -82.00501 27929 ft 421 kts 350°
2026-04-25 15:01 27.96171 -82.00999 28278 ft 422 kts 347°
2026-04-25 15:01 27.98999 -82.01877 28605 ft 422 kts 338°
2026-04-25 15:02 28.01664 -82.03273 28929 ft 423 kts 330°
2026-04-25 15:02 28.04246 -82.04891 29244 ft 425 kts 330°
2026-04-25 15:02 28.06840 -82.06516 29537 ft 427 kts 330°
2026-04-25 15:02 28.09450 -82.08149 29816 ft 430 kts 330°
2026-04-25 15:03 28.12075 -82.09786 30110 ft 431 kts 331°
2026-04-25 15:03 28.14712 -82.11427 30391 ft 433 kts 331°
2026-04-25 15:03 28.17358 -82.13074 30660 ft 435 kts 331°
2026-04-25 15:03 28.20016 -82.14735 30921 ft 437 kts 331°
2026-04-25 15:04 28.22680 -82.16403 31160 ft 439 kts 330°
2026-04-25 15:04 28.25356 -82.18080 31390 ft 440 kts 330°
2026-04-25 15:04 28.28038 -82.19761 31698 ft 440 kts 330°
2026-04-25 15:04 28.30711 -82.21437 32030 ft 439 kts 330°
2026-04-25 15:05 28.33380 -82.23108 32355 ft 438 kts 330°
2026-04-25 15:05 28.36043 -82.24777 32670 ft 437 kts 330°
2026-04-25 15:05 28.38706 -82.26447 33000 ft 436 kts 330°
2026-04-25 15:06 28.44007 -82.29774 33626 ft 435 kts 330°
2026-04-25 15:06 28.46652 -82.31438 33933 ft 435 kts 330°
2026-04-25 15:06 28.49295 -82.33102 34249 ft 434 kts 330°
2026-04-25 15:06 28.51932 -82.34763 34556 ft 433 kts 330°
2026-04-25 15:07 28.54566 -82.36419 34861 ft 432 kts 330°
2026-04-25 15:07 28.57188 -82.38070 35155 ft 430 kts 330°
2026-04-25 15:07 28.59802 -82.39719 35437 ft 429 kts 330°
2026-04-25 15:07 28.62411 -82.41368 35706 ft 428 kts 330°
2026-04-25 15:08 28.65009 -82.43013 35962 ft 427 kts 330°
2026-04-25 15:08 28.67602 -82.44656 36232 ft 426 kts 330°
2026-04-25 15:08 28.70188 -82.46292 36468 ft 425 kts 330°
2026-04-25 15:08 28.72772 -82.47926 36678 ft 425 kts 330°
2026-04-25 15:09 28.75355 -82.49560 36910 ft 423 kts 330°
2026-04-25 15:09 28.77891 -82.51166 37135 ft 422 kts 330°
2026-04-25 15:09 28.83037 -82.54423 37598 ft 419 kts 330°
2026-04-25 15:10 28.85576 -82.56033 37825 ft 417 kts 330°
2026-04-25 15:10 28.88107 -82.57638 37956 ft 416 kts 330°
2026-04-25 15:11 28.95680 -82.62449 37989 ft 416 kts 330°
2026-04-25 15:11 29.00738 -82.65673 37989 ft 416 kts 330°
2026-04-25 15:12 29.08335 -82.70508 37990 ft 416 kts 330°
2026-04-25 15:12 29.11681 -82.72639 37990 ft 416 kts 330°
2026-04-25 15:13 29.20923 -82.78545 37989 ft 415 kts 330°
2026-04-25 15:14 29.25961 -82.81780 37992 ft 415 kts 330°
2026-04-25 15:14 29.31007 -82.85008 37988 ft 415 kts 330°
2026-04-25 15:15 29.36057 -82.88242 37986 ft 416 kts 330°
2026-04-25 15:15 29.41096 -82.91480 37986 ft 415 kts 330°
2026-04-25 15:16 29.46144 -82.94718 37986 ft 416 kts 330°
2026-04-25 15:16 29.53841 -82.99307 37985 ft 416 kts 336°
2026-04-25 15:17 29.61872 -83.03131 37985 ft 416 kts 336°
2026-04-25 15:18 29.67225 -83.05679 37986 ft 417 kts 337°
2026-04-25 15:18 29.75254 -83.09503 37986 ft 416 kts 337°
2026-04-25 15:19 29.78829 -83.11212 37986 ft 416 kts 336°
2026-04-25 15:19 29.85930 -83.14629 37991 ft 415 kts 336°
2026-04-25 15:20 29.91256 -83.17192 37991 ft 415 kts 336°
2026-04-25 15:20 29.96595 -83.19745 37991 ft 415 kts 336°
2026-04-25 15:21 30.01926 -83.22302 37991 ft 415 kts 336°
2026-04-25 15:21 30.07258 -83.24867 37996 ft 415 kts 336°
2026-04-25 15:22 30.11690 -83.26995 37999 ft 415 kts 336°
2026-04-25 15:22 30.17915 -83.29986 38000 ft 414 kts 336°
2026-04-25 15:23 30.22340 -83.32119 37999 ft 414 kts 336°
2026-04-25 15:23 30.27650 -83.34689 37997 ft 414 kts 336°
2026-04-25 15:24 30.32922 -83.37245 37994 ft 414 kts 336°
2026-04-25 15:24 30.37333 -83.39380 37993 ft 414 kts 336°
2026-04-25 15:25 30.43548 -83.42378 37995 ft 414 kts 336°
2026-04-25 15:25 30.48867 -83.44944 37994 ft 414 kts 336°
2026-04-25 15:26 30.54182 -83.47523 37996 ft 414 kts 336°
2026-04-25 15:26 30.59493 -83.50112 38000 ft 414 kts 336°
2026-04-25 15:27 30.64805 -83.52710 37999 ft 414 kts 336°
2026-04-25 15:28 30.72779 -83.56595 38001 ft 414 kts 336°
2026-04-25 15:28 30.78094 -83.59180 38006 ft 414 kts 336°
2026-04-25 15:29 30.83404 -83.61772 38007 ft 414 kts 336°
2026-04-25 15:29 30.88711 -83.64369 38007 ft 414 kts 336°
2026-04-25 15:30 30.94016 -83.66970 38007 ft 414 kts 336°
2026-04-25 15:30 30.99320 -83.69575 38008 ft 414 kts 336°
2026-04-25 15:31 31.04631 -83.72176 38012 ft 414 kts 336°
2026-04-25 15:31 31.09931 -83.74782 38009 ft 414 kts 336°
2026-04-25 15:32 31.15239 -83.77391 38008 ft 414 kts 336°
2026-04-25 15:32 31.20540 -83.80004 38008 ft 414 kts 336°
2026-04-25 15:33 31.28452 -83.83920 38005 ft 414 kts 336°
2026-04-25 15:33 31.33755 -83.86537 38004 ft 414 kts 336°
2026-04-25 15:34 31.39050 -83.89163 38002 ft 414 kts 335°
2026-04-25 15:34 31.43493 -83.91368 38001 ft 414 kts 335°
2026-04-25 15:35 31.52351 -83.95635 37999 ft 415 kts 342°
2026-04-25 15:36 31.60868 -83.97631 38003 ft 416 kts 347°
2026-04-25 15:36 31.66559 -83.98887 38004 ft 416 kts 347°
2026-04-25 15:37 31.72256 -84.00153 38004 ft 417 kts 347°
2026-04-25 15:37 31.77953 -84.01426 38006 ft 417 kts 347°
2026-04-25 15:38 31.83654 -84.02703 38004 ft 417 kts 347°
2026-04-25 15:38 31.89362 -84.03980 38003 ft 417 kts 347°
2026-04-25 15:39 31.95066 -84.05256 38001 ft 417 kts 347°
2026-04-25 15:39 32.00765 -84.06532 37997 ft 417 kts 347°
2026-04-25 15:40 32.05498 -84.07591 37994 ft 417 kts 347°
2026-04-25 15:40 32.12162 -84.09077 37988 ft 417 kts 347°
2026-04-25 15:41 32.17866 -84.10349 37985 ft 417 kts 347°
2026-04-25 15:41 32.23564 -84.11637 37985 ft 417 kts 347°
2026-04-25 15:42 32.29270 -84.12933 37991 ft 417 kts 347°
2026-04-25 15:42 32.34974 -84.14215 37993 ft 417 kts 347°
2026-04-25 15:43 32.40673 -84.15496 37992 ft 417 kts 346°
2026-04-25 15:43 32.46372 -84.16787 37993 ft 417 kts 346°
2026-04-25 15:44 32.52066 -84.18079 37992 ft 417 kts 346°
2026-04-25 15:44 32.57765 -84.19369 37993 ft 417 kts 346°
2026-04-25 15:45 32.63462 -84.20666 37992 ft 417 kts 346°
2026-04-25 15:45 32.67271 -84.21533 37990 ft 417 kts 346°
2026-04-25 15:46 32.74851 -84.23257 37990 ft 417 kts 346°
2026-04-25 15:46 32.80552 -84.24553 37995 ft 417 kts 346°
2026-04-25 15:47 32.86250 -84.25848 37997 ft 417 kts 346°
2026-04-25 15:47 32.91919 -84.27143 37998 ft 417 kts 345°
2026-04-25 15:48 32.97662 -84.28461 37998 ft 418 kts 345°
2026-04-25 15:48 33.03336 -84.29753 37999 ft 418 kts 345°
2026-04-25 15:49 33.09051 -84.31068 37997 ft 418 kts 345°
2026-04-25 15:49 33.14769 -84.32378 37997 ft 419 kts 345°
2026-04-25 15:50 33.20490 -84.33689 37994 ft 419 kts 345°
2026-04-25 15:50 33.26208 -84.35007 37992 ft 419 kts 345°
2026-04-25 15:51 33.30040 -84.35893 37989 ft 419 kts 345°
2026-04-25 15:51 33.37658 -84.37654 37994 ft 419 kts 345°
2026-04-25 15:52 33.43390 -84.38978 37992 ft 419 kts 345°
2026-04-25 15:52 33.49107 -84.40300 37992 ft 420 kts 345°
2026-04-25 15:53 33.54854 -84.41624 37984 ft 420 kts 345°
2026-04-25 15:53 33.60587 -84.42954 37974 ft 419 kts 345°
2026-04-25 15:54 33.66325 -84.44273 37967 ft 420 kts 345°
2026-04-25 15:54 33.72080 -84.45536 37956 ft 420 kts 346°
2026-04-25 15:55 33.77843 -84.46785 37960 ft 421 kts 346°
2026-04-25 15:55 33.83604 -84.48047 37946 ft 421 kts 346°
2026-04-25 15:56 33.89361 -84.49322 37943 ft 421 kts 346°
2026-04-25 15:56 33.95129 -84.50601 37940 ft 421 kts 346°
2026-04-25 15:57 34.00887 -84.51872 37934 ft 421 kts 346°
2026-04-25 15:57 34.06636 -84.53181 37930 ft 421 kts 344°
2026-04-25 15:58 34.12368 -84.54604 37932 ft 421 kts 343°
2026-04-25 15:58 34.18102 -84.56050 37930 ft 421 kts 343°
2026-04-25 15:59 34.23811 -84.57472 37937 ft 422 kts 343°
2026-04-25 15:59 34.29559 -84.58889 37939 ft 422 kts 343°
2026-04-25 16:00 34.33412 -84.59843 37941 ft 422 kts 343°
2026-04-25 16:00 34.41071 -84.61738 37945 ft 422 kts 343°
2026-04-25 16:01 34.46827 -84.63152 37948 ft 422 kts 343°
2026-04-25 16:01 34.52586 -84.64580 37950 ft 422 kts 343°
2026-04-25 16:02 34.58343 -84.66016 37957 ft 423 kts 343°
2026-04-25 16:02 34.64107 -84.67459 37961 ft 423 kts 342°
2026-04-25 16:03 34.69869 -84.68894 37962 ft 423 kts 342°
2026-04-25 16:03 34.75634 -84.70325 37952 ft 423 kts 342°
2026-04-25 16:04 34.81396 -84.71776 37959 ft 423 kts 342°
2026-04-25 16:04 34.87160 -84.73225 37953 ft 423 kts 342°
2026-04-25 16:05 34.92935 -84.74669 37959 ft 423 kts 342°
2026-04-25 16:06 35.00617 -84.76599 37955 ft 424 kts 341°
2026-04-25 16:06 35.06394 -84.78056 37953 ft 424 kts 341°
2026-04-25 16:07 35.12175 -84.79519 37944 ft 425 kts 341°
2026-04-25 16:07 35.17962 -84.80984 37941 ft 425 kts 341°
2026-04-25 16:08 35.23754 -84.82446 37943 ft 425 kts 341°
2026-04-25 16:08 35.29549 -84.83903 37943 ft 425 kts 341°
2026-04-25 16:09 35.35345 -84.85363 37944 ft 425 kts 341°
2026-04-25 16:09 35.41143 -84.86837 37938 ft 426 kts 341°
2026-04-25 16:10 35.46943 -84.88318 37946 ft 426 kts 341°
2026-04-25 16:10 35.52747 -84.89800 37940 ft 426 kts 341°
2026-04-25 16:11 35.58544 -84.91283 37936 ft 426 kts 341°
2026-04-25 16:11 35.64347 -84.92765 37940 ft 426 kts 341°
2026-04-25 16:12 35.70152 -84.94247 37949 ft 426 kts 340°
2026-04-25 16:12 35.75921 -84.95723 37950 ft 426 kts 340°
2026-04-25 16:13 35.81723 -84.97213 37954 ft 426 kts 340°
2026-04-25 16:13 35.87532 -84.98705 37962 ft 426 kts 340°
2026-04-25 16:14 35.93339 -85.00207 37979 ft 426 kts 340°
2026-04-25 16:14 35.99151 -85.01707 37982 ft 427 kts 340°
2026-04-25 16:15 36.04965 -85.03206 37969 ft 428 kts 340°
2026-04-25 16:15 36.10799 -85.04712 37966 ft 429 kts 340°
2026-04-25 16:16 36.16650 -85.06219 37961 ft 430 kts 340°
2026-04-25 16:16 36.22505 -85.07736 37960 ft 430 kts 340°
2026-04-25 16:17 36.28359 -85.09259 37967 ft 430 kts 340°
2026-04-25 16:17 36.34215 -85.10787 37951 ft 431 kts 340°
2026-04-25 16:18 36.40083 -85.12317 37952 ft 431 kts 340°
2026-04-25 16:18 36.45956 -85.13846 37952 ft 431 kts 340°
2026-04-25 16:19 36.51828 -85.15375 37960 ft 431 kts 340°
2026-04-25 16:19 36.57703 -85.16912 37953 ft 432 kts 340°
2026-04-25 16:20 36.66526 -85.19233 37959 ft 432 kts 340°
2026-04-25 16:21 36.75352 -85.21551 37962 ft 433 kts 340°
2026-04-25 16:21 36.81246 -85.23104 37966 ft 433 kts 340°
2026-04-25 16:22 36.87104 -85.24652 37966 ft 433 kts 340°
2026-04-25 16:22 36.93007 -85.26212 37973 ft 434 kts 340°
2026-04-25 16:23 36.98911 -85.27774 37975 ft 434 kts 340°
2026-04-25 16:23 37.04821 -85.29336 37977 ft 434 kts 340°
2026-04-25 16:24 37.10732 -85.30910 37977 ft 434 kts 340°
2026-04-25 16:24 37.16652 -85.32486 37979 ft 435 kts 340°
2026-04-25 16:25 37.22582 -85.34061 37986 ft 436 kts 340°
2026-04-25 16:25 37.28515 -85.35640 37998 ft 436 kts 340°
2026-04-25 16:26 37.34453 -85.37225 38004 ft 436 kts 340°
2026-04-25 16:26 37.40394 -85.38811 38010 ft 437 kts 340°
2026-04-25 16:27 37.46336 -85.40410 38005 ft 437 kts 340°
2026-04-25 16:27 37.52279 -85.42013 37998 ft 437 kts 340°
2026-04-25 16:28 37.58229 -85.43608 37990 ft 437 kts 340°
2026-04-25 16:28 37.64181 -85.45209 37983 ft 438 kts 340°
2026-04-25 16:29 37.70138 -85.46817 37978 ft 438 kts 340°
2026-04-25 16:29 37.76100 -85.48429 37974 ft 438 kts 340°
2026-04-25 16:30 37.82065 -85.50045 37957 ft 439 kts 340°
2026-04-25 16:30 37.88043 -85.51660 37961 ft 439 kts 340°
2026-04-25 16:31 37.94020 -85.53283 37962 ft 439 kts 340°
2026-04-25 16:31 37.99992 -85.54911 37961 ft 439 kts 340°
2026-04-25 16:32 38.05973 -85.56543 37960 ft 439 kts 340°
2026-04-25 16:32 38.11809 -85.58588 37962 ft 428 kts 328°
2026-04-25 16:33 38.17193 -85.61739 37963 ft 426 kts 327°
2026-04-25 16:33 38.22570 -85.64900 37964 ft 426 kts 327°
2026-04-25 16:34 38.27953 -85.68064 37964 ft 426 kts 327°
2026-04-25 16:34 38.33302 -85.71216 37962 ft 426 kts 327°
2026-04-25 16:35 38.38683 -85.74391 37964 ft 427 kts 327°
2026-04-25 16:35 38.44076 -85.77572 37967 ft 427 kts 327°
2026-04-25 16:36 38.49467 -85.80757 37967 ft 427 kts 327°
2026-04-25 16:36 38.54863 -85.83958 37957 ft 427 kts 327°
2026-04-25 16:37 38.60259 -85.87167 37977 ft 428 kts 327°
2026-04-25 16:37 38.65652 -85.90377 37980 ft 428 kts 327°
2026-04-25 16:38 38.71053 -85.93586 37981 ft 428 kts 327°
2026-04-25 16:38 38.76450 -85.96808 37988 ft 428 kts 327°
2026-04-25 16:39 38.81849 -86.00038 37991 ft 428 kts 327°
2026-04-25 16:39 38.87247 -86.03274 37992 ft 428 kts 328°
2026-04-25 16:40 38.92635 -86.06510 37996 ft 428 kts 328°
2026-04-25 16:40 38.98000 -86.09730 38001 ft 428 kts 328°
2026-04-25 16:41 39.03401 -86.12977 38005 ft 429 kts 328°
2026-04-25 16:41 39.11519 -86.17863 38010 ft 429 kts 328°
2026-04-25 16:42 39.16928 -86.21135 38011 ft 430 kts 328°
2026-04-25 16:42 39.22339 -86.24409 38012 ft 429 kts 328°
2026-04-25 16:43 39.27743 -86.27683 38013 ft 429 kts 328°
2026-04-25 16:43 39.33143 -86.30965 38012 ft 429 kts 328°
2026-04-25 16:44 39.38547 -86.34255 38012 ft 429 kts 328°
2026-04-25 16:44 39.43949 -86.37553 38011 ft 429 kts 328°
2026-04-25 16:45 39.49350 -86.40853 38011 ft 429 kts 328°
2026-04-25 16:45 39.54749 -86.44147 38009 ft 429 kts 328°
2026-04-25 16:46 39.60140 -86.47451 38008 ft 429 kts 328°
2026-04-25 16:46 39.63707 -86.49643 38006 ft 429 kts 328°
2026-04-25 16:47 39.70900 -86.54060 38007 ft 430 kts 328°
2026-04-25 16:47 39.76300 -86.57388 38008 ft 429 kts 328°
2026-04-25 16:48 39.81696 -86.60717 38012 ft 429 kts 328°
2026-04-25 16:48 39.87088 -86.64051 38016 ft 429 kts 328°
2026-04-25 16:49 39.92482 -86.67387 38018 ft 429 kts 328°
2026-04-25 16:49 39.97869 -86.70728 38020 ft 429 kts 328°
2026-04-25 16:50 40.03255 -86.74077 38026 ft 429 kts 329°
2026-04-25 16:50 40.08643 -86.77433 38024 ft 429 kts 329°
2026-04-25 16:51 40.14036 -86.80791 38026 ft 429 kts 329°
2026-04-25 16:51 40.17610 -86.83023 38026 ft 430 kts 329°
2026-04-25 16:52 40.23915 -86.86962 38025 ft 430 kts 329°
2026-04-25 16:52 40.29309 -86.90344 38027 ft 430 kts 329°
2026-04-25 16:53 40.37400 -86.95422 38040 ft 430 kts 329°
2026-04-25 16:54 40.42790 -86.98821 38042 ft 430 kts 329°
2026-04-25 16:54 40.48180 -87.02227 38043 ft 430 kts 329°
2026-04-25 16:55 40.53566 -87.05633 38044 ft 430 kts 329°
2026-04-25 16:55 40.59026 -87.08884 38044 ft 432 kts 332°
2026-04-25 16:56 40.64648 -87.11731 38048 ft 433 kts 334°
2026-04-25 16:56 40.70301 -87.14503 38052 ft 433 kts 334°
2026-04-25 16:57 40.75924 -87.17372 38057 ft 433 kts 333°
2026-04-25 16:57 40.81516 -87.20292 38059 ft 432 kts 333°
2026-04-25 16:58 40.87115 -87.23212 38062 ft 433 kts 333°
2026-04-25 16:58 40.92714 -87.26138 38062 ft 433 kts 333°
2026-04-25 16:59 40.98313 -87.29074 38063 ft 433 kts 333°
2026-04-25 16:59 41.03919 -87.32006 38064 ft 433 kts 333°
2026-04-25 17:00 41.09485 -87.34924 38065 ft 433 kts 333°
2026-04-25 17:00 41.15087 -87.37874 38066 ft 434 kts 333°
2026-04-25 17:01 41.20696 -87.40827 38071 ft 433 kts 333°
2026-04-25 17:01 41.26305 -87.43779 38076 ft 434 kts 333°
2026-04-25 17:02 41.31915 -87.46736 38077 ft 434 kts 333°
2026-04-25 17:02 41.37518 -87.49697 38080 ft 433 kts 333°
2026-04-25 17:03 41.42882 -87.52552 38076 ft 433 kts 333°
2026-04-25 17:03 41.48479 -87.55528 38076 ft 433 kts 333°
2026-04-25 17:04 41.54081 -87.58503 38078 ft 434 kts 333°
2026-04-25 17:04 41.59687 -87.61485 38080 ft 434 kts 333°
2026-04-25 17:05 41.65303 -87.64486 38087 ft 434 kts 333°
2026-04-25 17:05 41.73719 -87.68988 38082 ft 434 kts 333°
2026-04-25 17:06 41.79328 -87.71994 38083 ft 434 kts 333°
2026-04-25 17:06 41.84934 -87.75009 38089 ft 434 kts 333°
2026-04-25 17:07 41.90543 -87.78038 38091 ft 435 kts 333°
2026-04-25 17:07 41.96160 -87.81071 38085 ft 435 kts 333°
2026-04-25 17:08 42.01777 -87.84106 38082 ft 435 kts 333°
2026-04-25 17:08 42.07387 -87.87148 38083 ft 435 kts 333°
2026-04-25 17:09 42.12999 -87.90187 38089 ft 435 kts 333°
2026-04-25 17:09 42.18607 -87.93229 38082 ft 434 kts 333°
2026-04-25 17:10 42.24312 -87.95961 38003 ft 439 kts 340°
2026-04-25 17:10 42.27284 -87.97055 37209 ft 445 kts 340°
2026-04-25 17:10 42.30268 -87.98148 36471 ft 445 kts 340°
2026-04-25 17:11 42.33256 -87.99240 35646 ft 445 kts 340°
2026-04-25 17:11 42.36211 -88.00323 34791 ft 446 kts 340°
2026-04-25 17:11 42.39184 -88.01410 34293 ft 439 kts 340°
2026-04-25 17:11 42.42117 -88.02482 33716 ft 435 kts 340°
2026-04-25 17:12 42.45020 -88.03547 33164 ft 430 kts 340°
2026-04-25 17:12 42.47929 -88.04619 32600 ft 425 kts 340°
2026-04-25 17:12 42.50734 -88.05657 32047 ft 422 kts 340°
2026-04-25 17:12 42.53550 -88.06704 31501 ft 418 kts 341°
2026-04-25 17:13 42.56343 -88.07740 30960 ft 414 kts 341°
2026-04-25 17:13 42.57284 -88.08088 30777 ft 413 kts 341°
2026-04-25 17:13 42.61867 -88.09784 29899 ft 408 kts 341°
2026-04-25 17:13 42.64595 -88.10796 29395 ft 405 kts 341°
2026-04-25 17:14 42.67299 -88.11801 28883 ft 401 kts 341°
2026-04-25 17:14 42.69978 -88.12800 28390 ft 398 kts 341°
2026-04-25 17:14 42.72642 -88.13789 27902 ft 394 kts 342°
2026-04-25 17:14 42.75277 -88.14765 27426 ft 391 kts 341°
2026-04-25 17:15 42.77883 -88.15735 26950 ft 387 kts 342°
2026-04-25 17:15 42.80467 -88.16699 26507 ft 383 kts 341°
2026-04-25 17:15 42.83029 -88.17662 26067 ft 380 kts 342°
2026-04-25 17:15 42.85559 -88.18614 25609 ft 376 kts 342°
2026-04-25 17:16 42.88075 -88.19560 25162 ft 373 kts 342°
2026-04-25 17:16 42.90569 -88.20493 24696 ft 370 kts 342°
2026-04-25 17:16 42.93039 -88.21416 24234 ft 367 kts 342°
2026-04-25 17:16 42.95492 -88.22333 23772 ft 364 kts 342°
2026-04-25 17:17 42.97925 -88.23244 23295 ft 362 kts 342°
2026-04-25 17:17 43.00343 -88.24154 22824 ft 360 kts 342°
2026-04-25 17:17 43.02751 -88.25062 22349 ft 357 kts 342°
2026-04-25 17:17 43.05140 -88.25965 21881 ft 356 kts 342°
2026-04-25 17:18 43.07519 -88.26862 21408 ft 354 kts 342°
2026-04-25 17:18 43.09885 -88.27750 20951 ft 352 kts 342°
2026-04-25 17:18 43.12245 -88.28628 20500 ft 350 kts 343°
2026-04-25 17:18 43.14600 -88.29421 20052 ft 348 kts 344°
2026-04-25 17:19 43.16953 -88.30141 19610 ft 346 kts 345°
2026-04-25 17:19 43.19297 -88.30827 19166 ft 343 kts 346°
2026-04-25 17:19 43.21625 -88.31507 18732 ft 341 kts 346°
2026-04-25 17:19 43.23931 -88.32190 18302 ft 338 kts 345°
2026-04-25 17:20 43.26219 -88.32880 17877 ft 335 kts 345°
2026-04-25 17:20 43.28492 -88.33575 17456 ft 333 kts 345°
2026-04-25 17:20 43.30742 -88.34269 17039 ft 331 kts 345°
2026-04-25 17:20 43.32982 -88.34963 16629 ft 329 kts 345°
2026-04-25 17:21 43.35209 -88.35653 16186 ft 327 kts 345°
2026-04-25 17:21 43.37439 -88.36346 15704 ft 328 kts 345°
2026-04-25 17:21 43.39658 -88.37033 15317 ft 326 kts 345°
2026-04-25 17:21 43.41860 -88.37714 14892 ft 324 kts 345°
2026-04-25 17:22 43.44051 -88.38393 14486 ft 321 kts 345°
2026-04-25 17:22 43.44758 -88.38612 14361 ft 321 kts 345°
2026-04-25 17:22 43.48355 -88.39726 13716 ft 316 kts 346°
2026-04-25 17:22 43.50490 -88.40384 13368 ft 313 kts 346°
2026-04-25 17:23 43.52598 -88.41039 13014 ft 309 kts 345°
2026-04-25 17:23 43.54691 -88.41693 12669 ft 307 kts 345°
2026-04-25 17:23 43.56767 -88.42342 12331 ft 305 kts 346°
2026-04-25 17:23 43.58833 -88.42983 11978 ft 304 kts 346°
2026-04-25 17:24 43.60890 -88.43620 11641 ft 302 kts 346°
2026-04-25 17:24 43.62936 -88.44254 11295 ft 300 kts 346°
2026-04-25 17:24 43.64966 -88.44886 10963 ft 298 kts 346°
2026-04-25 17:24 43.66987 -88.45516 10622 ft 297 kts 346°
2026-04-25 17:25 43.68988 -88.46143 10285 ft 294 kts 346°
2026-04-25 17:25 43.70967 -88.46760 10018 ft 288 kts 346°
2026-04-25 17:25 43.72895 -88.47362 9759 ft 281 kts 346°
2026-04-25 17:25 43.74785 -88.47953 9531 ft 277 kts 346°
2026-04-25 17:26 43.76662 -88.48542 9169 ft 275 kts 346°
2026-04-25 17:26 43.78522 -88.49124 8793 ft 273 kts 346°
2026-04-25 17:26 43.80368 -88.49703 8426 ft 271 kts 346°
2026-04-25 17:26 43.82195 -88.50274 8046 ft 268 kts 346°
2026-04-25 17:27 43.84013 -88.50845 7673 ft 267 kts 346°
2026-04-25 17:27 43.85817 -88.51414 7308 ft 265 kts 346°
2026-04-25 17:27 43.87606 -88.51977 6942 ft 263 kts 347°
2026-04-25 17:27 43.88211 -88.52168 6818 ft 263 kts 347°
2026-04-25 17:28 43.91154 -88.53097 6211 ft 259 kts 347°
2026-04-25 17:28 43.92909 -88.53648 5860 ft 257 kts 347°
2026-04-25 17:28 43.94651 -88.54194 5515 ft 256 kts 347°
2026-04-25 17:28 43.96381 -88.54737 5165 ft 254 kts 347°
2026-04-25 17:29 43.98059 -88.55267 5074 ft 239 kts 347°
2026-04-25 17:29 43.99632 -88.55765 4986 ft 226 kts 347°
2026-04-25 17:29 44.01052 -88.56512 4900 ft 213 kts 327°
2026-04-25 17:29 44.02108 -88.57907 4812 ft 208 kts 315°
2026-04-25 17:30 44.03092 -88.59371 4712 ft 207 kts 315°
2026-04-25 17:30 44.04078 -88.60829 4620 ft 207 kts 315°
2026-04-25 17:30 44.05055 -88.62252 4548 ft 198 kts 320°
2026-04-25 17:30 44.06164 -88.63265 4461 ft 187 kts 339°
2026-04-25 17:31 44.07407 -88.63691 4351 ft 184 kts 356°
2026-04-25 17:31 44.08676 -88.63533 4124 ft 184 kts 15°
2026-04-25 17:31 44.09847 -88.62838 4049 ft 184 kts 25°
2026-04-25 17:31 44.10997 -88.62058 3874 ft 184 kts 25°
2026-04-25 17:32 44.12144 -88.61283 3655 ft 183 kts 25°
2026-04-25 17:32 44.13279 -88.60515 3420 ft 184 kts 25°
2026-04-25 17:32 44.14426 -88.59737 3185 ft 183 kts 25°
2026-04-25 17:32 44.15572 -88.58959 2949 ft 178 kts 25°
2026-04-25 17:33 44.16632 -88.58240 2730 ft 167 kts 25°
2026-04-25 17:33 44.17625 -88.57565 2501 ft 150 kts 25°
2026-04-25 17:33 44.18524 -88.56954 2302 ft 139 kts 25°
2026-04-25 17:33 44.19383 -88.56371 2120 ft 137 kts 26°
2026-04-25 17:34 44.20239 -88.55788 1939 ft 137 kts 26°
2026-04-25 17:34 44.21092 -88.55208 1762 ft 136 kts 26°
2026-04-25 17:34 44.21942 -88.54627 1581 ft 136 kts 26°
2026-04-25 17:34 44.22789 -88.54050 1388 ft 136 kts 26°
2026-04-25 17:35 44.23637 -88.53482 1204 ft 135 kts 25°
2026-04-25 17:35 44.24481 -88.52906 1021 ft 135 kts 27°
2026-04-25 17:35 44.25310 -88.52336 904 ft 124 kts 28°
2026-04-25 17:35 44.25928 -88.51913 915 ft 65 kts 26°
2026-04-25 17:36 44.26161 -88.51756 907 ft 16 kts 26°
2026-04-25 17:36 44.26168 -88.51647 907 ft 13 kts 123°
2026-04-25 17:36 44.26142 -88.51573 908 ft 10 kts 114°
2026-04-25 17:36 44.26112 -88.51520 906 ft 5 kts 182°
2026-04-25 17:37 44.26069 -88.51546 906 ft 13 kts 214°
2026-04-25 17:37 44.25981 -88.51577 908 ft 13 kts 181°
2026-04-25 17:37 44.25915 -88.51543 909 ft 10 kts 121°
2026-04-25 17:37 44.25904 -88.51452 910 ft 9 kts 86°
2026-04-25 17:38 44.25936 -88.51407 910 ft 8 kts
2026-04-25 17:38 44.25973 -88.51407 909 ft 6 kts 360°
2026-04-25 17:38 44.25980 -88.51407 909 ft 0 kts